Location: Newark
(40.9833°N, 0.0333°W)
Time: 02:24:31
(UTC+00:00)

deb Explorer IX - Pass Details

Date: 01 November 2020
Orbit: 537 x 1105 km, 38.8° (Epoch: 02 December)

Event Time Altitude Azimuth Distance (km) Brightness Sun altitude
Rises 07:10:20 0° 274° (W) 3,439 ? 6.0°
Reaches altitude 10° 07:12:45 10° 272° (W) 2,583 ? 6.4°
Maximum altitude 07:18:59 66° 191° (SSW) 1,083 ? 7.4°
Drops below altitude 10° 07:26:02 10° 111° (ESE) 2,902 ? 8.6°
Sets 07:28:53 0° 109° (ESE) 3,892 ? 9.1°
